Вернуться в каталог

STARLINK-34743

АктивенСвязьSSO
NORAD 64937·PAYLOAD·🇺🇸 United States

Запущен Jul 26, 2025 с Vandenberg Space Force Base

Loading…

Ближайшие Пролёты (ближайшие 24 часа)

TLE

СвежийSource: CelesTrak SupGP

Эпоха: Sep 14, 2026, 20:59 UTC

1 64937C 25158F   26257.87479167  .00019711  00000+0  61214-3 0  2573
2 64937  97.2851 116.2292 0001673  96.1522 212.0332 15.33415624    16

Отслеживайте STARLINK-34743 в реальном времени с AllMySat

Download on the App Store